CW6102 Weather Reports


Display with metric or nautical units.
time (UTC)temp
F
wind
direction
speed
MPH
gust
MPH
rain 1hr
in
rain 24hr
in
rain mn
in
humidity
%
barometer
mb
20260507165703 47 42 1.0 5.0 0.01 0.65 0.64 93 1014.6
20260507164214 46 255 0.0 0.0 0.00 0.00 0.00 84 1024.7
20260507164206 47 11 1.0 3.0 0.00 0.67 0.63 94 1014.4
20260507163214 46 255 0.0 0.0 0.00 0.00 0.00 84 1024.7
20260507163205 47 345 1.0 7.0 0.01 0.67 0.63 93 1014.3
20260507162706 47 4 5.0 8.0 0.01 0.68 0.63 93 1014.3
20260507162214 46 255 0.0 0.0 0.00 0.00 0.00 84 1024.7
20260507162205 47 327 3.0 8.0 0.01 0.69 0.63 93 1014.2
20260507161214 46 255 0.0 0.0 0.00 0.00 0.00 84 1024.7
20260507161205 47 327 2.0 5.0 0.01 0.70 0.63 93 1014.3
20260507160706 47 1 2.0 5.0 0.02 0.71 0.63 93 1014.3
20260507160214 46 255 0.0 0.0 0.00 0.00 0.00 84 1024.7
20260507160205 47 344 3.0 5.0 0.02 0.71 0.63 93 1014.2
20260507155706 47 303 2.0 5.0 0.02 0.71 0.63 93 1014.3
20260507155214 46 255 0.0 0.0 0.00 0.00 0.00 84 1024.7
20260507155206 47 302 2.0 5.0 0.02 0.71 0.63 93 1014.2
20260507154706 48 41 1.0 3.0 0.02 0.71 0.63 94 1014.2
20260507154214 46 255 0.0 0.0 0.00 0.00 0.00 84 1024.7
20260507154205 47 41 1.0 3.0 0.02 0.71 0.63 93 1014.2
20260507153705 48 41 1.0 3.0 0.02 0.70 0.62 94 1014.1
20260507153214 46 255 0.0 0.0 0.00 0.00 0.00 84 1024.7
20260507153206 48 47 1.0 5.0 0.02 0.70 0.62 94 1014.0
20260507152705 48 14 3.0 7.0 0.02 0.70 0.62 94 1013.9
20260507151705 48 29 2.0 6.0 0.02 0.70 0.62 94 1013.8
20260507150705 48 356 2.0 7.0 0.03 0.70 0.61 94 1013.7
20260507145705 48 33 3.0 7.0 0.03 0.70 0.61 93 1013.6
20260507145213 46 255 0.0 0.0 0.00 0.00 0.00 84 1024.7
20260507145205 48 24 3.0 7.0 0.04 0.70 0.61 94 1013.4
20260507144706 48 340 5.0 7.0 0.03 0.69 0.61 93 1013.4
20260507144213 46 255 0.0 0.0 0.00 0.00 0.00 84 1024.7
20260507144206 48 358 2.0 7.0 0.04 0.69 0.61 93 1013.4
20260507143705 48 338 2.0 6.0 0.04 0.69 0.61 93 1013.4
20260507143214 46 255 0.0 0.0 0.00 0.00 0.00 84 1024.7
20260507143205 48 9 2.0 6.0 0.03 0.69 0.60 93 1013.3
20260507142705 48 16 2.0 7.0 0.03 0.69 0.60 93 1013.3
20260507142214 46 255 0.0 0.0 0.00 0.00 0.00 84 1024.7
20260507142206 48 25 2.0 5.0 0.04 0.69 0.60 97 1013.3
20260507141705 48 25 2.0 5.0 0.06 0.69 0.60 93 1013.3
20260507141214 46 255 0.0 0.0 0.00 0.00 0.00 84 1024.7
20260507141206 48 16 3.0 6.0 0.06 0.68 0.59 95 1013.2
20260507140705 48 347 1.0 3.0 0.07 0.67 0.58 93 1013.2
20260507140213 46 255 0.0 0.0 0.00 0.00 0.00 84 1024.7
20260507140205 48 40 1.0 3.0 0.07 0.67 0.58 93 1013.2
20260507135214 46 255 0.0 0.0 0.00 0.00 0.00 84 1024.7
20260507135205 48 27 1.0 7.0 0.06 0.66 0.57 93 1013.2
20260507134705 48 15 3.0 6.0 0.06 0.66 0.57 93 1013.1
20260507134213 46 255 0.0 0.0 0.00 0.00 0.00 84 1024.7
20260507134206 49 263 2.0 5.0 0.06 0.65 0.57 93 1013.1
20260507133705 49 64 0.0 2.0 0.06 0.65 0.57 93 1013.0
20260507132705 49 67 1.0 3.0 0.06 0.65 0.57 93 1012.9
20260507132213 46 255 0.0 0.0 0.00 0.00 0.00 84 1024.7
20260507132206 49 45 1.0 3.0 0.05 0.65 0.56 93 1012.8
20260507131706 48 45 2.0 5.0 0.03 0.63 0.54 93 1012.8
20260507131213 46 255 0.0 0.0 0.00 0.00 0.00 84 1024.7
20260507131206 48 45 1.0 3.0 0.02 0.61 0.53 93 1012.9
20260507130706 49 33 1.0 5.0 0.00 0.60 0.51 93 1012.7
20260507130213 46 255 0.0 0.0 0.00 0.00 0.00 84 1024.7
20260507130205 49 48 2.0 3.0 0.00 0.60 0.51 93 1012.8
20260507125705 49 14 1.0 5.0 0.00 0.60 0.51 93 1012.7
20260507125213 46 255 0.0 0.0 0.00 0.00 0.00 84 1024.7
20260507125205 49 338 1.0 5.0 0.00 0.60 0.51 93 1012.7
20260507124705 49 51 1.0 3.0 0.00 0.60 0.51 93 1012.6
20260507123705 49 56 1.0 3.0 0.00 0.60 0.51 94 1012.5
20260507123213 46 255 0.0 0.0 0.00 0.00 0.00 84 1024.7
20260507123205 49 105 0.0 2.0 0.01 0.60 0.51 94 1012.5
20260507122706 49 105 1.0 6.0 0.01 0.60 0.51 94 1012.4
20260507122213 46 255 0.0 0.0 0.00 0.00 0.00 84 1024.7
20260507122205 49 88 0.0 3.0 0.02 0.60 0.51 94 1012.4
20260507121705 49 37 0.0 5.0 0.02 0.60 0.51 94 1012.4
20260507121213 46 255 0.0 0.0 0.00 0.00 0.00 84 1024.7
20260507121205 49 74 0.0 3.0 0.04 0.60 0.51 94 1012.4
20260507120705 49 32 0.0 3.0 0.05 0.60 0.51 94 1012.3
20260507120213 46 255 0.0 0.0 0.00 0.00 0.00 84 1024.7
20260507120205 49 20 3.0 6.0 0.06 0.60 0.51 94 1012.3
20260507115706 49 22 2.0 5.0 0.06 0.60 0.51 94 1012.3
20260507115213 46 255 0.0 0.0 0.00 0.00 0.00 84 1024.7
20260507115205 49 90 0.0 5.0 0.06 0.60 0.51 94 1012.3
20260507114213 46 255 0.0 0.0 0.00 0.00 0.00 84 1024.7
20260507114206 48 306 1.0 6.0 0.06 0.60 0.51 94 1012.2
20260507113705 48 344 2.0 6.0 0.06 0.60 0.51 94 1012.2
20260507112705 48 46 2.0 6.0 0.05 0.59 0.50 94 1012.0
20260507112213 46 255 0.0 0.0 0.00 0.00 0.00 84 1024.7
20260507112205 48 344 2.0 6.0 0.04 0.58 0.50 94 1012.1
20260507111705 48 29 3.0 6.0 0.03 0.57 0.49 94 1012.1
20260507111213 46 255 0.0 0.0 0.00 0.00 0.00 84 1024.7
20260507111205 49 18 2.0 5.0 0.02 0.56 0.47 94 1012.0
20260507110706 49 120 1.0 6.0 0.01 0.55 0.46 94 1011.9
20260507110213 46 255 0.0 0.0 0.00 0.00 0.00 84 1024.7
20260507110205 49 81 0.0 3.0 0.00 0.54 0.46 94 1011.8
20260507105705 48 88 1.0 3.0 0.00 0.54 0.46 94 1011.9
20260507105213 46 255 0.0 0.0 0.00 0.00 0.00 84 1024.7
20260507105205 48 60 1.0 3.0 0.00 0.54 0.46 94 1011.9
20260507104705 48 55 1.0 3.0 0.00 0.54 0.46 94 1011.8
20260507104213 46 255 0.0 0.0 0.00 0.00 0.00 84 1024.7
20260507104205 48 335 2.0 5.0 0.00 0.54 0.46 94 1011.7
20260507103704 48 40 1.0 5.0 0.00 0.54 0.46 94 1011.8
20260507103213 46 255 0.0 0.0 0.00 0.00 0.00 84 1024.7
20260507103205 48 343 2.0 5.0 0.00 0.54 0.46 94 1011.7
20260507102705 48 45 3.0 6.0 0.00 0.54 0.46 94 1011.7
20260507101705 48 329 1.0 5.0 0.00 0.54 0.46 94 1011.6
20260507101213 46 255 0.0 0.0 0.00 0.00 0.00 84 1024.7
20260507101205 48 28 2.0 7.0 0.00 0.54 0.46 94 1011.6
20260507100705 48 35 1.0 5.0 0.00 0.54 0.46 94 1011.5
20260507095213 46 255 0.0 0.0 0.00 0.00 0.00 84 1024.7
20260507095205 48 29 3.0 6.0 0.00 0.54 0.46 94 1011.4
20260507094705 48 6 3.0 5.0 0.01 0.54 0.46 94 1011.4
20260507094213 46 255 0.0 0.0 0.00 0.00 0.00 84 1024.7
20260507094205 48 13 3.0 6.0 0.01 0.54 0.46 94 1011.4
20260507093705 48 55 1.0 6.0 0.01 0.54 0.46 94 1011.3
20260507093213 46 255 0.0 0.0 0.00 0.00 0.00 84 1024.7
20260507093205 48 26 3.0 6.0 0.01 0.54 0.46 94 1011.2
20260507092705 48 25 2.0 6.0 0.01 0.54 0.46 94 1011.1
20260507092212 46 255 0.0 0.0 0.00 0.00 0.00 84 1024.7
20260507092205 48 350 3.0 6.0 0.01 0.54 0.46 94 1011.0
20260507091213 46 255 0.0 0.0 0.00 0.00 0.00 84 1024.7
20260507091205 48 316 2.0 5.0 0.02 0.54 0.46 94 1011.0
20260507090705 48 62 1.0 5.0 0.02 0.54 0.46 94 1010.9
20260507090213 46 255 0.0 0.0 0.00 0.00 0.00 84 1024.7
20260507090206 47 351 2.0 6.0 0.02 0.54 0.46 94 1010.8
20260507085705 47 36 2.0 6.0 0.02 0.54 0.46 94 1010.8
20260507085212 46 255 0.0 0.0 0.00 0.00 0.00 84 1024.7
20260507085204 47 12 2.0 7.0 0.02 0.54 0.46 94 1010.7
20260507084705 47 310 1.0 3.0 0.01 0.54 0.45 94 1010.7
20260507083704 47 10 2.0 6.0 0.01 0.54 0.45 94 1010.5
20260507083212 46 255 0.0 0.0 0.00 0.00 0.00 84 1024.7
20260507083205 47 25 2.0 6.0 0.01 0.54 0.45 94 1010.4
20260507082212 46 255 0.0 0.0 0.00 0.00 0.00 84 1024.7
20260507082204 47 44 1.0 3.0 0.01 0.54 0.45 94 1010.4
20260507081705 47 46 1.0 3.0 0.01 0.54 0.45 94 1010.3
20260507081212 46 255 0.0 0.0 0.00 0.00 0.00 84 1024.7
20260507081205 47 53 1.0 3.0 0.00 0.53 0.44 94 1010.3
20260507080706 47 28 2.0 5.0 0.00 0.53 0.44 94 1010.3
20260507080212 46 255 0.0 0.0 0.00 0.00 0.00 84 1024.7
20260507080205 47 15 1.0 3.0 0.00 0.53 0.44 94 1010.3
20260507075706 47 38 1.0 5.0 0.00 0.53 0.44 94 1010.3
20260507075212 46 255 0.0 0.0 0.00 0.00 0.00 84 1024.7
20260507075205 47 25 2.0 5.0 0.00 0.53 0.44 94 1010.2
20260507074212 46 255 0.0 0.0 0.00 0.00 0.00 84 1024.7
20260507074205 47 15 2.0 5.0 0.00 0.53 0.44 94 1010.0
20260507073705 47 27 1.0 3.0 0.00 0.53 0.44 94 1010.0
20260507073213 46 255 0.0 0.0 0.00 0.00 0.00 84 1024.7
20260507073205 47 349 1.0 3.0 0.00 0.53 0.44 94 1009.9
20260507072705 47 317 2.0 5.0 0.00 0.53 0.44 94 1009.8
20260507072212 46 255 0.0 0.0 0.00 0.00 0.00 84 1024.7
20260507072205 47 40 1.0 3.0 0.00 0.53 0.44 94 1009.8
20260507071705 47 35 1.0 3.0 0.00 0.53 0.44 94 1009.8
20260507071212 46 255 0.0 0.0 0.00 0.00 0.00 84 1024.7
20260507071205 47 37 0.0 3.0 0.00 0.53 0.44 94 1009.8
20260507070705 47 37 1.0 3.0 0.00 0.53 0.44 94 1009.8
20260507065212 46 255 0.0 0.0 0.00 0.00 0.00 84 1024.7
20260507065204 47 37 1.0 3.0 0.00 0.53 0.44 94 1009.7
20260507064705 47 39 0.0 3.0 0.00 0.53 0.44 94 1009.6
20260507064212 46 255 0.0 0.0 0.00 0.00 0.00 84 1024.7
20260507064205 47 59 0.0 3.0 0.00 0.53 0.44 94 1009.5
20260507063705 47 26 1.0 5.0 0.00 0.53 0.44 94 1009.5
20260507063212 46 255 0.0 0.0 0.00 0.00 0.00 84 1024.7
20260507063205 47 37 1.0 3.0 0.00 0.53 0.44 94 1009.5
20260507062704 47 9 1.0 5.0 0.00 0.53 0.44 94 1009.4
20260507062212 46 255 0.0 0.0 0.00 0.00 0.00 84 1024.7
20260507062204 48 25 2.0 5.0 0.00 0.53 0.44 94 1009.4
20260507061212 46 255 0.0 0.0 0.00 0.00 0.00 84 1024.7
20260507061205 48 49 1.0 3.0 0.00 0.53 0.44 93 1009.1
20260507060705 48 49 2.0 5.0 0.00 0.53 0.44 93 1009.0
20260507055705 48 51 1.0 3.0 0.00 0.53 0.44 94 1008.9
20260507055212 46 255 0.0 0.0 0.00 0.00 0.00 84 1024.7
20260507055205 48 50 2.0 3.0 0.00 0.53 0.44 94 1008.9
20260507054212 46 255 0.0 0.0 0.00 0.00 0.00 84 1024.7
20260507054205 48 343 1.0 3.0 0.00 0.53 0.44 93 1008.9
20260507053705 48 22 2.0 7.0 0.00 0.53 0.44 93 1008.8
20260507053212 46 255 0.0 0.0 0.00 0.00 0.00 84 1024.7
20260507053205 48 100 1.0 5.0 0.00 0.53 0.44 93 1008.8
20260507052705 48 83 1.0 7.0 0.00 0.53 0.44 93 1008.6
20260507051705 48 23 2.0 5.0 0.01 0.54 0.44 94 1008.5
20260507051212 46 255 0.0 0.0 0.00 0.00 0.00 84 1024.7
20260507051204 48 32 1.0 3.0 0.01 0.54 0.44 94 1008.4
20260507050705 48 14 1.0 5.0 0.02 0.54 0.44 94 1008.4
20260507050212 46 255 0.0 0.0 0.00 0.00 0.00 84 1024.7
20260507050205 48 96 2.0 3.0 0.02 0.54 0.44 94 1008.3
20260507045705 49 96 1.0 5.0 0.02 0.54 0.44 93 1008.4
20260507045212 46 255 0.0 0.0 0.00 0.00 0.00 84 1024.7
20260507045205 49 96 1.0 2.0 0.02 0.54 0.44 93 1008.3
20260507044212 46 255 0.0 0.0 0.00 0.00 0.00 84 1024.7
20260507044205 49 96 0.0 1.0 0.02 0.54 0.44 93 1008.2
20260507043212 46 255 0.0 0.0 0.00 0.00 0.00 84 1024.7
20260507043205 49 96 0.0 1.0 0.02 0.54 0.44 93 1008.1
20260507042705 49 96 1.0 3.0 0.03 0.54 0.44 93 1008.0
20260507042212 46 255 0.0 0.0 0.00 0.00 0.00 84 1024.7
20260507042204 49 96 1.0 3.0 0.02 0.53 0.43 93 1008.1
20260507041704 49 96 1.0 2.0 0.03 0.53 0.43 94 1008.1
20260507041212 46 255 0.0 0.0 0.00 0.00 0.00 84 1024.7
20260507041204 49 96 0.0 0.0 0.03 0.53 0.43 94 1008.1
20260507040705 49 96 0.0 0.0 0.03 0.52 0.43 93 1008.1
20260507040212 46 255 0.0 0.0 0.00 0.00 0.00 84 1024.7
20260507040205 49 96 0.0 0.0 0.04 0.52 0.43 93 1008.0
20260507035705 49 96 0.0 0.0 0.06 0.51 0.42 93 1008.0
20260507035212 46 255 0.0 0.0 0.00 0.00 0.00 84 1024.7
20260507035204 49 96 0.0 0.0 0.08 0.51 0.42 93 1008.0
20260507034705 49 96 0.0 0.0 0.09 0.51 0.42 93 1007.9
20260507034212 46 255 0.0 0.0 0.00 0.00 0.00 84 1024.7
20260507034205 49 96 0.0 0.0 0.09 0.51 0.42 94 1007.9
20260507033211 46 255 0.0 0.0 0.00 0.00 0.00 84 1024.7
20260507033205 49 96 0.0 0.0 0.09 0.51 0.42 94 1007.8
20260507032211 46 255 0.0 0.0 0.00 0.00 0.00 84 1024.7
20260507032205 49 96 0.0 0.0 0.09 0.50 0.41 94 1007.8
20260507031705 49 96 0.0 0.0 0.09 0.50 0.40 94 1007.7
20260507031211 46 255 0.0 0.0 0.00 0.00 0.00 84 1024.7
20260507031205 49 96 0.0 0.0 0.09 0.50 0.40 93 1007.8
20260507030705 49 96 0.0 1.0 0.09 0.49 0.39 93 1007.7
20260507030211 46 255 0.0 0.0 0.00 0.00 0.00 84 1024.7
20260507030205 49 96 0.0 2.0 0.10 0.48 0.39 93 1007.6
20260507025704 49 96 0.0 1.0 0.09 0.46 0.36 93 1007.5
20260507024704 49 96 0.0 1.0 0.08 0.43 0.33 93 1007.3
20260507024211 46 255 0.0 0.0 0.00 0.00 0.00 84 1024.7
20260507024205 49 96 1.0 3.0 0.08 0.42 0.32 93 1007.4
20260507023704 49 103 0.0 2.0 0.09 0.42 0.32 93 1007.4
20260507023211 46 255 0.0 0.0 0.00 0.00 0.00 84 1024.7
20260507023205 49 103 0.0 3.0 0.09 0.42 0.32 93 1007.4
20260507022704 49 117 0.0 2.0 0.09 0.42 0.32 93 1007.4
20260507022211 46 255 0.0 0.0 0.00 0.00 0.00 84 1024.7
20260507022205 49 117 0.0 2.0 0.08 0.41 0.31 93 1007.3
20260507021211 46 255 0.0 0.0 0.00 0.00 0.00 84 1024.7
20260507021205 49 117 0.0 2.0 0.08 0.40 0.31 93 1007.2
20260507020705 49 117 0.0 0.0 0.08 0.39 0.30 93 1007.2
20260507020211 46 255 0.0 0.0 0.00 0.00 0.00 84 1024.7
20260507020204 49 117 0.0 1.0 0.08 0.38 0.28 93 1007.2
20260507015704 49 117 0.0 2.0 0.08 0.36 0.27 93 1007.3
20260507015211 46 255 0.0 0.0 0.00 0.00 0.00 84 1024.7
20260507015204 49 117 1.0 2.0 0.08 0.35 0.26 93 1007.3
20260507014704 49 117 0.0 2.0 0.08 0.35 0.25 93 1007.2
20260507014211 46 255 0.0 0.0 0.00 0.00 0.00 84 1024.7
20260507014204 49 113 1.0 5.0 0.08 0.34 0.24 93 1007.1
20260507013704 49 40 0.0 3.0 0.07 0.33 0.24 93 1007.2
20260507012705 49 69 1.0 3.0 0.09 0.33 0.24 93 1007.1
20260507011704 49 82 0.0 2.0 0.14 0.32 0.23 93 1007.1
20260507010705 49 18 3.0 8.0 0.20 0.31 0.22 93 1007.1
20260507010211 46 255 0.0 0.0 0.00 0.00 0.00 84 1024.7
20260507010205 49 7 2.0 5.0 0.20 0.30 0.20 93 1007.3
20260507005704 49 28 1.0 5.0 0.19 0.28 0.19 93 1007.3
20260507005211 46 255 0.0 0.0 0.00 0.00 0.00 84 1024.7
20260507005205 50 330 2.0 7.0 0.18 0.28 0.18 93 1007.2
20260507004211 46 255 0.0 0.0 0.00 0.00 0.00 84 1024.7
20260507004204 50 316 5.0 12.0 0.17 0.26 0.17 93 1007.4
20260507003704 50 287 7.0 12.0 0.17 0.26 0.17 93 1007.4
20260507003211 46 255 0.0 0.0 0.00 0.00 0.00 84 1024.7
20260507003205 50 263 5.0 8.0 0.16 0.25 0.16 93 1007.3
20260507002704 50 284 4.0 9.0 0.14 0.24 0.14 93 1007.2
20260507002211 46 255 0.0 0.0 0.00 0.00 0.00 84 1024.7
20260507002204 50 307 7.0 14.0 0.12 0.21 0.12 93 1007.1
20260507001704 51 308 6.0 12.0 0.09 0.18 0.09 93 1007.1
20260507001211 46 255 0.0 0.0 0.00 0.00 0.00 84 1024.7
20260507001204 51 309 6.0 8.0 0.04 0.13 0.04 93 1007.1
20260507000704 51 328 5.0 8.0 0.02 0.11 0.02 93 1007.1
20260507000212 46 255 0.0 0.0 0.00 0.00 0.00 84 1024.7
20260507000205 51 320 6.0 12.0 0.01 0.10 0.01 93 1007.0
20260506235704 51 303 5.0 7.0 0.00 0.09 0.00 93 1006.7
20260506235211 46 255 0.0 0.0 0.00 0.00 0.00 84 1024.7
20260506235204 51 331 3.0 6.0 0.00 0.09 0.00 93 1006.7
20260506234704 51 290 2.0 5.0 0.00 0.10 0.00 93 1006.6
20260506234211 46 255 0.0 0.0 0.00 0.00 0.00 84 1024.7
20260506234204 51 39 2.0 5.0 0.00 0.11 0.00 93 1006.6
20260506233704 52 39 2.0 5.0 0.00 0.13 0.00 93 1006.6
20260506233210 46 255 0.0 0.0 0.00 0.00 0.00 84 1024.7
20260506233205 52 39 0.0 3.0 0.00 0.14 0.00 93 1006.4
20260506232704 52 76 2.0 5.0 0.00 0.16 0.00 93 1006.4
20260506231704 52 77 1.0 3.0 0.00 0.19 0.00 93 1006.2
20260506230704 52 48 1.0 5.0 0.00 0.23 0.00 93 1006.2
20260506230210 46 255 0.0 0.0 0.00 0.00 0.00 84 1024.7
20260506230204 52 5 2.0 6.0 0.00 0.24 0.00 92 1006.1
20260506225704 52 7 3.0 8.0 0.00 0.25 0.00 93 1006.2
20260506225211 46 255 0.0 0.0 0.00 0.00 0.00 84 1024.7
20260506225204 52 23 2.0 7.0 0.00 0.27 0.00 93 1006.2
20260506224210 46 255 0.0 0.0 0.00 0.00 0.00 84 1024.7
20260506224204 52 43 3.0 9.0 0.00 0.29 0.00 92 1006.5
20260506223704 52 27 3.0 7.0 0.00 0.31 0.00 92 1006.4
20260506223210 46 255 0.0 0.0 0.00 0.00 0.00 84 1024.7
20260506223204 52 352 3.0 6.0 0.00 0.37 0.00 92 1006.4
20260506222704 52 0 2.0 6.0 0.00 0.43 0.00 92 1006.4
20260506222210 46 255 0.0 0.0 0.00 0.00 0.00 84 1024.7
20260506222204 53 8 2.0 6.0 0.00 0.50 0.00 92 1006.4
20260506221704 53 350 5.0 8.0 0.00 0.52 0.00 92 1006.3
20260506221210 46 255 0.0 0.0 0.00 0.00 0.00 84 1024.7
20260506221204 53 4 2.0 7.0 0.00 0.57 0.00 92 1006.3
20260506220704 54 23 2.0 6.0 0.00 0.57 0.00 92 1006.2
20260506220210 46 255 0.0 0.0 0.00 0.00 0.00 84 1024.7
20260506220205 54 51 3.0 6.0 0.00 0.57 0.00 92 1006.1
20260506215704 54 9 2.0 6.0 0.00 0.58 0.57 92 1006.2
20260506215210 46 255 0.0 0.0 0.00 0.00 0.00 84 1024.7
20260506215204 54 63 0.0 3.0 0.00 0.58 0.57 92 1006.0
20260506214704 54 63 1.0 3.0 0.00 0.58 0.57 92 1006.1
20260506214210 46 255 0.0 0.0 0.00 0.00 0.00 84 1024.7
20260506214204 54 49 1.0 5.0 0.01 0.58 0.57 92 1006.0
20260506213704 54 82 0.0 1.0 0.01 0.58 0.57 92 1006.0
20260506213210 46 255 0.0 0.0 0.00 0.00 0.00 84 1024.7
20260506213204 54 82 1.0 3.0 0.01 0.58 0.57 92 1006.1
20260506212210 46 255 0.0 0.0 0.00 0.00 0.00 84 1024.7
20260506212205 54 82 2.0 7.0 0.02 0.58 0.57 92 1006.1
20260506211704 54 81 1.0 3.0 0.02 0.58 0.57 92 1006.1
20260506211210 46 255 0.0 0.0 0.00 0.00 0.00 84 1024.7
20260506211205 54 52 2.0 5.0 0.02 0.58 0.57 92 1006.1
20260506210704 54 9 2.0 3.0 0.02 0.58 0.57 92 1006.0
20260506210210 46 255 0.0 0.0 0.00 0.00 0.00 84 1024.7
20260506210204 55 43 2.0 5.0 0.02 0.58 0.57 92 1006.1
20260506205704 55 348 2.0 5.0 0.02 0.58 0.57 92 1005.9
20260506205210 46 255 0.0 0.0 0.00 0.00 0.00 84 1024.7
20260506205204 55 55 2.0 6.0 0.02 0.58 0.57 92 1005.8
20260506204704 55 316 2.0 6.0 0.02 0.58 0.57 92 1005.7
20260506204210 46 255 0.0 0.0 0.00 0.00 0.00 84 1024.7
20260506204204 55 39 2.0 6.0 0.01 0.57 0.57 91 1005.8
20260506203704 55 25 3.0 7.0 0.01 0.57 0.57 91 1005.7
20260506202704 55 348 3.0 7.0 0.01 0.57 0.57 91 1005.8
20260506202210 46 255 0.0 0.0 0.00 0.00 0.00 84 1024.7
20260506202203 55 2 3.0 7.0 0.00 0.57 0.56 91 1005.8
20260506201704 56 8 3.0 7.0 0.00 0.57 0.56 91 1005.8
20260506201210 46 255 0.0 0.0 0.00 0.00 0.00 84 1024.7
20260506201204 56 8 3.0 6.0 0.00 0.57 0.56 91 1005.9
20260506200704 56 293 1.0 3.0 0.00 0.57 0.56 91 1005.8
20260506200210 46 255 0.0 0.0 0.00 0.00 0.00 84 1024.7
20260506200204 56 5 1.0 3.0 0.00 0.57 0.56 91 1005.7
20260506195704 56 311 2.0 5.0 0.00 0.57 0.56 91 1005.6
20260506195210 46 255 0.0 0.0 0.00 0.00 0.00 84 1024.7
20260506195204 56 354 1.0 5.0 0.00 0.57 0.56 91 1005.7
20260506194704 56 62 0.0 3.0 0.00 0.57 0.56 91 1005.7
20260506194210 46 255 0.0 0.0 0.00 0.00 0.00 84 1024.7
20260506194205 56 67 1.0 3.0 0.00 0.57 0.56 91 1005.6
20260506193704 57 105 0.0 0.0 0.00 0.57 0.56 91 1005.5
20260506193210 46 255 0.0 0.0 0.00 0.00 0.00 84 1024.7
20260506193204 57 105 0.0 0.0 0.00 0.57 0.56 91 1005.6
20260506192704 57 148 1.0 2.0 0.00 0.57 0.56 91 1005.5
20260506191705 57 83 0.0 1.0 0.00 0.57 0.56 90 1005.5
20260506191210 46 255 0.0 0.0 0.00 0.00 0.00 84 1024.7
20260506191204 57 83 0.0 0.0 0.00 0.57 0.56 91 1005.4
20260506190705 57 83 0.0 2.0 0.00 0.57 0.56 90 1005.3
20260506190210 46 255 0.0 0.0 0.00 0.00 0.00 84 1024.7
20260506190205 57 76 2.0 3.0 0.00 0.57 0.56 90 1005.4
20260506185704 57 101 0.0 1.0 0.00 0.57 0.56 90 1005.3
20260506185210 46 255 0.0 0.0 0.00 0.00 0.00 84 1024.7
20260506185204 58 101 0.0 2.0 0.00 0.57 0.56 90 1005.2
20260506184704 58 101 0.0 0.0 0.00 0.57 0.56 90 1005.2
20260506184210 46 255 0.0 0.0 0.00 0.00 0.00 84 1024.7
20260506184204 58 101 0.0 0.0 0.00 0.57 0.56 90 1005.0
20260506183704 58 95 1.0 2.0 0.00 0.57 0.56 89 1005.0
20260506183210 46 255 0.0 0.0 0.00 0.00 0.00 84 1024.7
20260506183204 58 138 0.0 1.0 0.00 0.57 0.56 89 1004.9
20260506181704 58 232 0.0 3.0 0.00 0.57 0.56 89 1004.8
20260506181210 46 255 0.0 0.0 0.00 0.00 0.00 84 1024.7
20260506181204 59 174 0.0 0.0 0.00 0.57 0.56 89 1004.8
20260506180704 59 173 0.0 2.0 0.00 0.57 0.56 89 1004.8
20260506180210 46 255 0.0 0.0 0.00 0.00 0.00 84 1024.7
20260506180204 59 169 0.0 2.0 0.00 0.57 0.56 89 1004.8
20260506175704 59 121 2.0 5.0 0.00 0.57 0.56 88 1004.7
20260506174704 59 341 3.0 8.0 0.01 0.57 0.56 88 1004.6
20260506173704 60 256 2.0 3.0 0.02 0.57 0.56 88 1004.6
20260506173210 46 255 0.0 0.0 0.00 0.00 0.00 84 1024.7
20260506173203 60 296 2.0 3.0 0.02 0.57 0.56 89 1004.5
20260506172704 60 288 0.0 0.0 0.03 0.57 0.56 89 1004.5
20260506172209 46 255 0.0 0.0 0.00 0.00 0.00 84 1024.7
20260506172203 60 288 0.0 0.0 0.04 0.57 0.56 89 1004.5
20260506171703 60 288 0.0 0.0 0.06 0.57 0.56 88 1004.5
20260506171209 46 255 0.0 0.0 0.00 0.00 0.00 84 1024.7
20260506171204 60 288 0.0 3.0 0.06 0.57 0.56 88 1004.5
20260506170704 60 282 3.0 6.0 0.06 0.57 0.56 88 1004.6
20260506170210 46 255 0.0 0.0 0.00 0.00 0.00 84 1024.7
20260506170204 61 277 2.0 5.0 0.06 0.57 0.56 87 1004.6